Location: Unspecified
(0.0000°N, 0.0000°E)
Time: 22:58:45
(UTC+00:00)

Courier 1B Rocket - Pass Details

Date: 06 October 2020
Orbit: 920 x 1202 km, 28.2° (Epoch: 28 October)

Event Time Altitude Azimuth Distance (km) Brightness Sun altitude
Rises 09:25:42 0° 322° (NW) 3,544 7.7 54.1°
Reaches altitude 10° 09:28:51 10° 336° (NNW) 2,597 7.2 54.8°
Maximum altitude 09:33:40 23° 28° (NNE) 1,842 6.9 56.0°
Drops below altitude 10° 09:38:33 10° 78° (ENE) 2,647 8.0 57.2°
Sets 09:41:47 0° 93° (E) 3,627 8.5 58.0°
